KI8L Weather Reports


Display with metric or nautical units.
time (UTC)temp
F
wind
direction
speed
MPH
gust
MPH
rain 1hr
in
rain 24hr
in
rain mn
in
humidity
%
barometer
mb
20260510164010 58 48 3.0 3.0 0.00 0.00 0.00 56 1020.1
20260510163506 57 238 2.0 3.0 0.00 0.00 0.00 56 1020.1
20260510163001 57 0 2.0 4.0 0.00 0.00 0.00 51 1020.1
20260510162458 57 342 4.0 4.0 0.00 0.00 0.00 56 1020.3
20260510161954 56 15 4.0 6.0 0.00 0.00 0.00 60 1020.0
20260510161450 56 48 4.0 4.0 0.00 0.00 0.00 57 1020.1
20260510160948 56 358 2.0 3.0 0.00 0.00 0.00 56 1020.1
20260510160445 56 19 5.0 7.0 0.00 0.00 0.00 61 1020.1
20260510155943 56 45 3.0 3.0 0.00 0.00 0.00 56 1020.3
20260510155441 56 347 5.0 6.0 0.00 0.00 0.00 61 1019.9
20260510154937 55 51 2.0 2.0 0.00 0.00 0.00 56 1019.9
20260510154433 55 7 5.0 7.0 0.00 0.00 0.00 60 1020.0
20260510153931 55 40 3.0 3.0 0.00 0.00 0.00 61 1020.0
20260510153428 55 41 6.0 7.0 0.00 0.00 0.00 62 1019.9
20260510152925 55 44 5.0 6.0 0.00 0.00 0.00 65 1019.7
20260510152423 54 3 4.0 7.0 0.00 0.00 0.00 65 1019.7
20260510151919 54 42 4.0 4.0 0.00 0.00 0.00 67 1019.6
20260510151416 54 22 5.0 7.0 0.00 0.00 0.00 66 1019.7
20260510150912 54 46 6.0 7.0 0.00 0.00 0.00 65 1019.7
20260510150408 53 31 4.0 4.0 0.00 0.00 0.00 63 1019.5
20260510145904 53 49 5.0 6.0 0.00 0.00 0.00 64 1019.4
20260510145401 53 40 5.0 7.0 0.00 0.00 0.00 66 1019.5
20260510144858 53 48 4.0 4.0 0.00 0.00 0.00 71 1019.3
20260510144355 53 22 7.0 9.0 0.00 0.00 0.00 67 1019.2
20260510143855 53 30 4.0 4.0 0.00 0.00 0.00 69 1018.9
20260510143351 52 60 1.0 2.0 0.00 0.00 0.00 70 1018.8
20260510142848 52 43 5.0 7.0 0.00 0.00 0.00 65 1019.0
20260510142344 52 31 5.0 6.0 0.00 0.00 0.00 65 1019.0
20260510141842 52 36 3.0 3.0 0.00 0.00 0.00 73 1018.9
20260510141339 51 29 3.0 4.0 0.00 0.00 0.00 74 1019.0
20260510140836 51 20 4.0 6.0 0.00 0.00 0.00 76 1018.9
20260510140332 51 21 6.0 7.0 0.00 0.00 0.00 74 1018.7
20260510135831 51 31 4.0 7.0 0.00 0.00 0.00 72 1018.9
20260510135327 51 37 6.0 7.0 0.00 0.00 0.00 76 1018.8
20260510134825 51 38 6.0 7.0 0.00 0.00 0.00 77 1018.8
20260510134322 51 48 3.0 3.0 0.00 0.00 0.00 77 1019.0
20260510133817 50 28 4.0 4.0 0.00 0.00 0.00 80 1018.8
20260510133314 50 323 4.0 6.0 0.00 0.00 0.00 80 1018.9
20260510132809 50 344 6.0 9.0 0.00 0.00 0.00 80 1018.7
20260510132308 49 35 3.0 3.0 0.00 0.00 0.00 83 1018.6
20260510131804 49 31 2.0 3.0 0.00 0.00 0.00 84 1018.4
20260510131302 49 37 3.0 3.0 0.00 0.00 0.00 85 1018.6
20260510130758 49 38 3.0 4.0 0.00 0.00 0.00 83 1018.4
20260510130255 49 21 6.0 7.0 0.00 0.00 0.00 84 1018.5
20260510125752 49 23 3.0 4.0 0.00 0.00 0.00 86 1018.4
20260510125247 49 41 4.0 6.0 0.00 0.00 0.00 85 1018.3
20260510124744 48 14 3.0 3.0 0.00 0.00 0.00 90 1018.1
20260510124242 48 9 4.0 6.0 0.00 0.00 0.00 90 1017.9
20260510123737 48 16 5.0 7.0 0.00 0.00 0.00 90 1017.8
20260510123234 48 48 2.0 3.0 0.00 0.00 0.00 91 1017.8
20260510122730 48 20 3.0 3.0 0.00 0.00 0.00 91 1017.6
20260510122226 48 41 4.0 4.0 0.00 0.00 0.00 89 1017.4
20260510121722 48 15 4.0 4.0 0.00 0.00 0.00 91 1017.7
20260510121220 48 34 4.0 4.0 0.00 0.00 0.00 92 1017.2
20260510120717 48 32 6.0 8.0 0.00 0.00 0.00 91 1017.3
20260510120214 48 50 4.0 4.0 0.00 0.00 0.00 92 1017.0
20260510115709 48 40 2.0 3.0 0.00 0.00 0.00 91 1017.2
20260510115208 48 39 2.0 2.0 0.00 0.00 0.00 91 1017.0
20260510114703 48 24 2.0 3.0 0.00 0.00 0.00 91 1016.6
20260510114200 48 47 2.0 2.0 0.00 0.00 0.00 91 1017.0
20260510113655 48 345 2.0 2.0 0.00 0.00 0.00 92 1017.0
20260510113152 48 50 2.0 2.0 0.00 0.00 0.00 91 1016.6
20260510112649 48 13 3.0 3.0 0.00 0.00 0.00 89 1016.5
20260510112146 48 21 2.0 2.0 0.00 0.00 0.00 90 1016.1
20260510111642 48 19 3.0 3.0 0.00 0.00 0.00 90 1016.1
20260510111138 48 23 2.0 3.0 0.00 0.00 0.00 90 1015.9
20260510110633 48 16 2.0 2.0 0.00 0.00 0.00 91 1016.0
20260510110131 48 15 1.0 1.0 0.00 0.00 0.00 89 1016.2
20260510105626 47 335 1.0 2.0 0.00 0.00 0.00 89 1015.9
20260510105121 47 17 0.0 1.0 0.00 0.00 0.00 89 1015.7
20260510104618 47 5 2.0 3.0 0.00 0.00 0.00 90 1015.4
20260510104114 47 13 2.0 2.0 0.00 0.00 0.00 91 1015.5
20260510103612 46 106 2.0 2.0 0.00 0.00 0.00 92 1015.3
20260510103107 45 107 0.0 1.0 0.00 0.00 0.00 95 1015.5
20260510102603 45 107 0.0 0.0 0.00 0.00 0.00 99 1015.2
20260510102059 44 107 0.0 0.0 0.00 0.00 0.00 99 1015.0
20260510101557 44 107 0.0 0.0 0.00 0.00 0.00 99 1014.9
20260510101055 44 107 0.0 0.0 0.00 0.00 0.00 99 1014.9
20260510100551 44 107 0.0 0.0 0.00 0.00 0.00 99 1014.8
20260510100049 43 107 0.0 0.0 0.00 0.00 0.00 99 1014.8
20260510095544 43 107 0.0 0.0 0.00 0.00 0.00 99 1014.7
20260510095044 43 107 0.0 0.0 0.00 0.00 0.00 99 1014.8
20260510094538 43 8 0.0 0.0 0.00 0.00 0.00 99 1014.8
20260510094034 44 8 0.0 0.0 0.00 0.00 0.00 97 1014.6
20260510093530 44 8 0.0 0.0 0.00 0.00 0.00 96 1014.7
20260510093027 44 8 0.0 0.0 0.00 0.00 0.00 94 1014.7
20260510092524 45 8 0.0 0.0 0.00 0.00 0.00 93 1014.6
20260510092023 45 8 0.0 0.0 0.00 0.00 0.00 92 1014.5
20260510091521 46 334 0.0 0.0 0.00 0.00 0.00 92 1014.4
20260510091016 46 334 0.0 0.0 0.00 0.00 0.00 91 1014.1
20260510090514 45 334 0.0 0.0 0.00 0.00 0.00 92 1014.4
20260510090010 46 334 0.0 1.0 0.00 0.00 0.00 93 1014.1
20260510085510 46 335 0.0 0.0 0.00 0.00 0.00 90 1014.1
20260510085006 47 337 0.0 0.0 0.00 0.00 0.00 89 1013.8
20260510084503 47 337 1.0 1.0 0.00 0.00 0.00 88 1013.8
20260510083959 47 346 0.0 1.0 0.00 0.00 0.00 87 1013.5
20260510083456 48 8 1.0 1.0 0.00 0.00 0.00 87 1013.4
20260510082951 48 8 1.0 1.0 0.00 0.00 0.00 86 1013.4
20260510082449 48 6 1.0 1.0 0.00 0.00 0.00 86 1013.3
20260510081949 48 5 1.0 1.0 0.00 0.00 0.00 86 1013.4
20260510081445 48 10 1.0 2.0 0.00 0.00 0.00 87 1013.4
20260510080941 48 24 1.0 2.0 0.00 0.00 0.00 87 1013.0
20260510080439 48 27 2.0 2.0 0.00 0.00 0.00 87 1013.0
20260510075937 49 21 3.0 3.0 0.00 0.00 0.00 85 1013.1
20260510075435 48 14 3.0 4.0 0.00 0.00 0.00 87 1013.2
20260510074931 49 22 3.0 3.0 0.00 0.00 0.00 87 1013.1
20260510074428 49 13 2.0 3.0 0.00 0.00 0.00 88 1013.1
20260510073925 49 18 3.0 3.0 0.00 0.00 0.00 85 1012.9
20260510073420 50 24 4.0 4.0 0.00 0.00 0.00 87 1012.8
20260510072917 50 29 3.0 3.0 0.00 0.00 0.00 86 1013.0
20260510072414 50 14 4.0 6.0 0.00 0.00 0.00 88 1012.9
20260510071909 51 10 5.0 6.0 0.00 0.00 0.00 88 1012.6
20260510071406 51 49 7.0 9.0 0.00 0.00 0.00 92 1012.8
20260510070904 52 10 4.0 4.0 0.00 0.00 0.00 93 1012.7
20260510070401 53 10 6.0 8.0 0.00 0.00 0.00 96 1012.5
20260510065856 53 16 5.0 8.0 0.00 0.00 0.00 96 1012.5
20260510065353 54 350 3.0 4.0 0.00 0.00 0.00 96 1012.3
20260510064850 54 335 2.0 2.0 0.00 0.00 0.00 96 1012.1
20260510064348 54 335 1.0 2.0 0.00 0.00 0.00 96 1012.2
20260510063843 55 359 2.0 3.0 0.00 0.00 0.00 95 1012.0
20260510063340 55 308 0.0 0.0 0.00 0.00 0.00 95 1012.0
20260510062837 55 0 2.0 2.0 0.00 0.00 0.00 95 1011.9
20260510062332 55 347 4.0 6.0 0.00 0.00 0.00 97 1011.7
20260510061828 55 264 0.0 0.0 0.00 0.00 0.00 97 1011.7
20260510061325 55 267 0.0 0.0 0.00 0.00 0.00 97 1011.8
20260510060821 55 275 1.0 1.0 0.00 0.00 0.00 98 1011.7
20260510060318 55 341 0.0 0.0 0.00 0.00 0.00 97 1011.6
20260510055815 55 250 2.0 4.0 0.00 0.00 0.00 98 1011.6
20260510055314 55 238 2.0 3.0 0.00 0.00 0.00 98 1011.4
20260510054813 54 11 0.0 1.0 0.00 0.00 0.00 99 1011.4
20260510054309 53 169 0.0 0.0 0.00 0.00 0.00 99 1011.4
20260510053810 54 169 0.0 0.0 0.00 0.00 0.00 99 1011.4
20260510053305 54 169 0.0 0.0 0.00 0.00 0.00 99 1011.4
20260510052801 54 169 1.0 1.0 0.00 0.00 0.00 98 1011.4
20260510052257 54 169 1.0 1.0 0.00 0.00 0.00 99 1011.2
20260510051754 54 171 2.0 3.0 0.00 0.00 0.00 99 1011.2
20260510051250 53 173 2.0 3.0 0.00 0.00 0.00 99 1011.3
20260510050748 53 174 0.0 0.0 0.00 0.00 0.00 99 1011.0
20260510050244 52 173 1.0 1.0 0.00 0.00 0.00 99 1011.0
20260510045742 52 173 1.0 1.0 0.00 0.00 0.00 99 1011.1
20260510045238 52 174 3.0 3.0 0.00 0.00 0.00 99 1011.0
20260510044735 51 189 2.0 3.0 0.00 0.00 0.00 99 1010.9
20260510044233 52 168 3.0 3.0 0.00 0.00 0.00 99 1011.2
20260510043727 52 175 3.0 3.0 0.00 0.00 0.00 99 1010.9
20260510043225 51 178 3.0 3.0 0.00 0.00 0.00 99 1011.0
20260510042722 51 265 0.0 0.0 0.00 0.00 0.00 99 1010.5
20260510042218 51 265 0.0 0.0 0.00 0.00 0.00 99 1010.5
20260510041715 51 265 1.0 1.0 0.00 0.00 0.00 99 1010.6
20260510041212 51 265 1.0 1.0 0.00 0.00 0.00 99 1010.5
20260510040709 51 265 0.0 0.0 0.00 0.00 0.00 99 1010.5
20260510040206 52 265 0.0 0.0 0.00 0.00 0.00 99 1010.6
20260510035701 52 265 0.0 0.0 0.00 0.43 0.43 99 1010.4
20260510035157 53 265 0.0 0.0 0.00 0.43 0.43 99 1010.5
20260510034653 52 265 0.0 0.0 0.00 0.43 0.43 99 1010.4
20260510034151 52 265 0.0 0.0 0.00 0.43 0.43 99 1010.4
20260510033647 52 265 1.0 1.0 0.00 0.43 0.43 99 1010.4
20260510033145 53 265 0.0 0.0 0.00 0.43 0.43 99 1010.7
20260510032641 53 265 2.0 2.0 0.00 0.43 0.43 99 1010.6
20260510032136 53 265 2.0 2.0 0.00 0.43 0.43 99 1010.6
20260510031632 53 265 2.0 2.0 0.00 0.43 0.43 99 1010.4
20260510031129 53 265 2.0 2.0 0.00 0.43 0.43 99 1010.6
20260510030628 54 265 3.0 3.0 0.00 0.43 0.43 99 1010.5
20260510030126 54 265 2.0 2.0 0.00 0.43 0.43 99 1010.4
20260510025623 55 265 2.0 2.0 0.00 0.43 0.43 99 1010.6
20260510025121 55 265 0.0 0.0 0.00 0.43 0.43 99 1010.6
20260510024617 55 265 1.0 1.0 0.07 0.43 0.43 99 1011.0
20260510024114 55 265 0.0 0.0 0.07 0.43 0.43 99 1010.3
20260510023610 55 265 0.0 0.0 0.00 0.42 0.42 99 1010.5
20260510023108 55 265 0.0 0.0 0.00 0.42 0.42 99 1010.5
20260510022607 55 265 2.0 2.0 0.00 0.42 0.42 99 1010.4
20260510022102 55 265 2.0 2.0 0.00 0.42 0.42 99 1010.9
20260510021558 55 265 3.0 3.0 0.00 0.42 0.42 99 1010.3
20260510021056 54 283 0.0 1.0 0.00 0.42 0.42 99 1010.0
20260510020555 54 283 0.0 0.0 0.00 0.42 0.42 99 1010.0
20260510020051 54 283 0.0 0.0 0.00 0.42 0.42 99 1010.2
20260510015548 54 283 2.0 2.0 0.00 0.42 0.42 99 1010.3
20260510015044 54 283 0.0 0.0 0.00 0.42 0.42 99 1010.0
20260510014540 54 283 1.0 1.0 0.00 0.42 0.42 99 1009.9
20260510014037 53 283 2.0 2.0 0.00 0.42 0.42 99 1009.7
20260510013532 53 283 1.0 2.0 0.00 0.42 0.42 99 1009.6
20260510013028 53 283 1.0 1.0 0.00 0.42 0.42 99 1009.6
20260510012522 54 283 1.0 1.0 0.00 0.42 0.42 99 1009.5
20260510012019 54 283 0.0 0.0 0.00 0.42 0.42 99 1009.4
20260510011518 54 283 0.0 0.0 0.00 0.42 0.42 99 1009.4
20260510011014 54 283 0.0 0.0 0.00 0.42 0.42 99 1009.3
20260510010511 54 283 1.0 1.0 0.00 0.42 0.42 99 1009.3
20260510010008 55 283 2.0 2.0 0.00 0.42 0.42 99 1009.1
20260510005504 55 283 1.0 1.0 0.00 0.42 0.42 99 1009.2
20260510005002 55 283 1.0 2.0 0.00 0.42 0.42 99 1009.2
20260510004459 55 283 2.0 2.0 0.00 0.42 0.42 99 1008.9
20260510003957 55 283 0.0 0.0 0.00 0.42 0.42 99 1009.1
20260510003453 55 283 1.0 1.0 0.00 0.42 0.42 99 1009.1
20260510002948 55 283 0.0 0.0 0.00 0.42 0.42 99 1009.2
20260510002444 55 283 0.0 0.0 0.05 0.42 0.42 99 1009.3
20260510001941 55 283 1.0 2.0 0.05 0.42 0.42 98 1009.5
20260510001438 55 283 0.0 1.0 0.00 0.41 0.41 98 1009.7
20260510000936 55 231 3.0 6.0 0.00 0.41 0.41 98 1009.5
20260510000433 55 44 0.0 1.0 0.00 0.41 0.41 99 1009.4
20260509235929 55 43 1.0 1.0 0.00 0.41 0.41 98 1009.2
20260509235426 55 326 2.0 3.0 0.12 0.41 0.41 98 1009.3
20260509234922 55 25 2.0 3.0 0.31 0.41 0.41 98 1009.5
20260509234419 55 268 3.0 3.0 0.38 0.39 0.39 97 1009.6
20260509233917 56 352 3.0 6.0 0.31 0.37 0.37 95 1009.6
20260509233414 57 14 8.0 11.0 0.12 0.33 0.33 91 1009.1
20260509232910 60 11 11.0 19.0 0.07 0.32 0.32 82 1009.2
20260509232408 63 33 4.0 7.0 0.00 0.31 0.31 76 1008.8
20260509231904 64 221 2.0 2.0 0.00 0.31 0.31 73 1007.9
20260509231401 64 236 5.0 6.0 0.00 0.31 0.31 73 1007.9
20260509230859 66 239 4.0 6.0 0.00 0.31 0.31 72 1007.8
20260509230355 68 225 3.0 3.0 0.00 0.31 0.31 64 1007.4
20260509225851 68 241 9.0 11.0 0.00 0.31 0.31 62 1007.2
20260509225348 68 220 8.0 10.0 0.00 0.31 0.31 61 1007.1
20260509224843 68 219 6.0 9.0 0.00 0.31 0.31 63 1007.1
20260509224340 68 201 3.0 3.0 0.00 0.31 0.31 62 1007.0
20260509223837 68 189 6.0 7.0 0.00 0.31 0.31 59 1007.0
20260509223333 68 190 13.0 21.0 0.00 0.31 0.31 58 1006.9
20260509222831 68 205 6.0 8.0 0.00 0.31 0.31 60 1007.1
20260509222326 68 233 10.0 13.0 0.00 0.31 0.31 59 1007.1
20260509221821 68 229 6.0 7.0 0.00 0.31 0.31 58 1007.1
20260509221319 69 165 9.0 10.0 0.00 0.31 0.31 58 1006.9
20260509220819 69 194 5.0 7.0 0.00 0.31 0.31 57 1006.9
20260509220315 70 181 11.0 14.0 0.00 0.31 0.31 59 1007.1
20260509215811 70 222 8.0 10.0 0.00 0.31 0.31 57 1007.0
20260509215308 70 152 11.0 15.0 0.00 0.31 0.31 57 1007.0
20260509214805 70 171 11.0 11.0 0.00 0.31 0.31 58 1007.0
20260509214302 70 162 12.0 14.0 0.00 0.31 0.31 59 1006.9
20260509213759 70 201 7.0 8.0 0.00 0.31 0.31 59 1007.0
20260509213255 70 236 4.0 6.0 0.00 0.31 0.31 58 1007.0
20260509212752 70 192 6.0 7.0 0.00 0.31 0.31 59 1006.9
20260509212249 69 171 10.0 10.0 0.00 0.31 0.31 60 1007.0
20260509211745 69 184 11.0 14.0 0.00 0.31 0.31 59 1007.1
20260509211242 70 193 11.0 11.0 0.00 0.31 0.31 59 1007.1
20260509210738 70 201 8.0 10.0 0.00 0.31 0.31 60 1007.4
20260509210236 70 199 14.0 17.0 0.00 0.31 0.31 58 1007.3
20260509205735 69 198 9.0 10.0 0.00 0.31 0.31 61 1007.4
20260509205230 70 183 15.0 17.0 0.00 0.31 0.31 61 1007.3
20260509204726 70 233 8.0 10.0 0.00 0.31 0.31 60 1007.3
20260509204223 69 193 9.0 9.0 0.00 0.31 0.31 60 1007.7
20260509203718 70 240 9.0 11.0 0.00 0.31 0.31 65 1007.9
20260509203217 69 188 7.0 11.0 0.00 0.31 0.31 64 1007.9
20260509202712 69 215 7.0 10.0 0.00 0.31 0.31 65 1008.1
20260509202208 69 188 8.0 10.0 0.00 0.31 0.31 62 1007.9
20260509201703 69 158 10.0 11.0 0.00 0.31 0.31 67 1007.9
20260509201200 70 188 9.0 10.0 0.00 0.31 0.31 64 1008.2
20260509200656 69 205 8.0 11.0 0.00 0.31 0.31 66 1008.0
20260509200151 69 180 8.0 10.0 0.00 0.31 0.31 68 1008.2
20260509195648 69 217 10.0 11.0 0.00 0.31 0.31 68 1008.4
20260509195143 69 189 13.0 15.0 0.00 0.31 0.31 65 1008.5
20260509194643 68 220 11.0 15.0 0.00 0.31 0.31 66 1008.4
20260509194140 68 195 10.0 13.0 0.00 0.31 0.31 68 1008.6
20260509193636 69 203 10.0 13.0 0.00 0.31 0.31 68 1008.3
20260509193131 68 189 11.0 11.0 0.00 0.31 0.31 68 1008.3
20260509192628 68 157 15.0 19.0 0.00 0.31 0.31 65 1008.5
20260509192124 68 168 9.0 13.0 0.00 0.31 0.31 70 1008.6
20260509191623 67 205 11.0 13.0 0.00 0.31 0.31 71 1008.8
20260509191121 69 197 6.0 7.0 0.00 0.31 0.31 66 1008.6
20260509190617 69 202 6.0 7.0 0.00 0.31 0.31 70 1008.7
20260509190115 68 236 7.0 10.0 0.00 0.31 0.31 65 1008.7
20260509185612 68 222 7.0 8.0 0.00 0.31 0.31 69 1009.0
20260509185108 67 176 12.0 17.0 0.00 0.31 0.31 71 1009.1
20260509184606 66 196 7.0 9.0 0.00 0.31 0.31 71 1009.0
20260509184103 65 249 6.0 7.0 0.00 0.31 0.31 70 1009.2
20260509183558 66 171 7.0 9.0 0.00 0.31 0.31 69 1008.9
20260509183054 66 198 7.0 8.0 0.00 0.31 0.31 70 1009.1
20260509182551 66 187 9.0 10.0 0.00 0.31 0.31 70 1009.0
20260509182047 66 202 11.0 14.0 0.00 0.31 0.31 70 1009.0
20260509181546 66 190 6.0 8.0 0.00 0.31 0.31 72 1008.9
20260509181042 66 153 12.0 15.0 0.00 0.31 0.31 69 1009.1
20260509180538 66 156 9.0 11.0 0.00 0.31 0.31 72 1009.1
20260509180036 66 203 5.0 7.0 0.00 0.31 0.31 73 1009.1
20260509175531 66 184 8.0 10.0 0.00 0.31 0.31 74 1009.0
20260509175028 67 207 8.0 10.0 0.00 0.31 0.31 69 1009.2
20260509174525 65 213 9.0 10.0 0.00 0.31 0.31 76 1009.2
20260509174020 65 236 6.0 7.0 0.00 0.31 0.31 71 1009.2
20260509173514 65 174 10.0 14.0 0.00 0.31 0.31 72 1009.3
20260509173011 65 194 8.0 9.0 0.00 0.31 0.31 71 1009.2
20260509172508 65 185 5.0 6.0 0.00 0.31 0.31 73 1009.3
20260509172004 64 234 4.0 4.0 0.00 0.31 0.31 74 1009.3
20260509171500 66 172 7.0 10.0 0.00 0.31 0.31 74 1009.2
20260509170957 66 171 6.0 8.0 0.00 0.31 0.31 72 1009.1
20260509170452 65 233 7.0 9.0 0.00 0.31 0.31 75 1009.2
20260509165948 65 227 11.0 13.0 0.00 0.31 0.31 72 1009.3
20260509165447 65 220 9.0 11.0 0.00 0.31 0.31 81 1009.4
20260509164943 64 205 3.0 3.0 0.00 0.31 0.31 78 1009.1
20260509164439 64 204 6.0 7.0 0.00 0.31 0.31 74 1009.1